This demonstration page uses our WeatherBlox Daily Observations layout. Learn more.

Left ArrowRight Arrow

Hourly Observations for September 10, 2019

Temp ( °F °C ) Dew Point ( °F °C ) Humidity (%) Winds ( mph kmh ) Pressure ( in mb ) Visibility ( mi km ) Precip ( " mm )
1:51 am 01:51 Clear 77 25 56 13.3 48 48 Calm 29.74 1007 10 16 0.00 0.00
2:51 am 02:51 Clear 74 23.3 58 14.4 57 57 E 5 7 29.74 1007 10 16 0.00 0.00
3:51 am 03:51 Clear 74 23.3 57 13.9 56 56 E 5 7 29.75 1008 10 16 0.00 0.00
4:51 am 04:51 Clear 72 22.2 57 13.9 59 59 SE 6 9 29.77 1008 10 16 0.00 0.00
5:51 am 05:51 Clear 73 22.8 56 13.3 55 55 SSE 8 13 29.78 1009 10 16 0.00 0.00
6:51 am 06:51 Mostly Cloudy 75 23.9 58 14.4 55 55 ESE 7 11 29.80 1009 10 16 0.00 0.00
7:51 am 07:51 undefined 79 26.1 62 16.7 56 56 E 8 13 29.81 1010 10 16 0.00 0.00
8:51 am 08:51 undefined 81 27.2 64 17.8 57 57 Calm 29.84 1010 10 16 0.00 0.00
9:51 am 09:51 undefined 81 27.2 63 17.2 54 54 VRB 3 6 29.83 1010 10 16 0.00 0.00
10:51 am 10:51 Sunny 85 29.4 63 17.2 48 48 VRB 5 7 29.81 1010 10 16 0.01 0.25
11:51 am 11:51 Mostly Sunny 89 31.7 60 15.6 38 38 SE 10 17 29.78 1008 10 16 0.00 0.00
12:51 pm 12:51 Mostly Cloudy 92 33.3 57 13.9 31 31 S 14 22 29.75 1007 10 16 0.00 0.00
1:51 pm 13:51 Sunny 93 33.9 55 12.8 28 28 S 17 28 29.72 1006 10 16 0.00 0.00
2:51 pm 14:51 Mostly Sunny 93 33.9 55 12.8 28 28 S 14 22 29.69 1005 10 16 0.00 0.00
3:51 pm 15:51 Partly Cloudy 91 32.8 60 15.6 35 35 NW 22 35 29.70 1006 10 16 0.00 0.00
4:51 pm 16:51 Sunny 89 31.7 58 14.4 35 35 NW 15 24 29.70 1006 10 16 0.00 0.00
5:51 pm 17:51 Sunny 88 31.1 58 14.4 36 36 WNW 9 15 29.70 1006 10 16 0.00 0.00
6:51 pm 18:51 Mostly Cloudy 85 29.4 58 14.4 40 40 WNW 5 7 29.72 1006 10 16 0.00 0.00
7:51 pm 19:51 Mostly Cloudy 82 27.8 61 16.1 49 49 WSW 5 7 29.74 1007 10 16 0.00 0.00
8:51 pm 20:51 Cloudy 81 27.2 62 16.7 53 53 W 5 7 29.76 1008 10 16 0.00 0.00
9:51 pm 21:51 Cloudy 82 27.8 61 16.1 49 49 WNW 3 6 29.77 1008 10 16 0.00 0.00
10:51 pm 22:51 Partly Cloudy 80 26.7 60 15.6 51 51 Calm 29.78 1008 10 16 0.00 0.00
11:51 pm 23:51 Mostly Clear 78 25.6 60 15.6 54 54 E 5 7 29.78 1008 10 16 0.00 0.00

Powered by AerisWeather